STARLINK-35053, 65609

Orbit data source: Space-Track

STARLINK-35053, 65609 is a payload satellite owned by SpaceX/Seattle (US) in SSO that was launched on Sat, 13 Sep 2025 UTC via an FALCON 9 launch vehicle from the Air Force Eastern Test Range (AFETR). Payload-class satellites include a variety of spacecraft equipped with specific instruments for various scientific and technological missions. These include communications satellites like Starlink; space stations such as the ISS; scientific satellites like the Hubble; Earth observation satellites from companies like Planet Labs, Umbra, and HawkEye 360; GPS; miniature CubeSats for education and research; and military/defense satellites.

Loading next visibility...
Identifier
65609, 2025-207T
Orbit
SSO
Country
Flag of USUS
Related business
Manufacturer
SpaceX/Seattle
Mission
Operational Commercial Communications
Bus & Motor
STARLINK V2MO, Unknown motor
Mass
575 kg wet, ~530 kg dry
Launch date (UTC)
2025-09-13 (9 months ago)
Launch vehicle
FALCON 9
Launch site
Air Force Eastern Test Range (AFETR)
Object type
Payload
Rocket body
Debris
Shape & HBR
Box + 2 Pan, 17.7 m
Radar Cross Section
36.964 m², Large (>1 m²)

Expand to show TLE details & history
Last TLE update: 23 hours ago

TLE from 23 hours ago
0 STARLINK-35053
1 65609U 25207T   26166.17832651  .00001806  00000-0  12908-3 0  9994
2 65609  97.3562 233.8880 0001872 122.9639 237.1769 15.05657595 42775
Epoch: 2026-06-15T04:16Z
TLE epoch observation values (Epoch: 2026-06-15T04:16:47.410Z)
Latitude
0.00001°
Longitude
-93.77799°
Altitude
553.263 km
Speed
7.585 km/s
True Right ascension
15h 35m 33s
True Declination
0° 00' 00"
Sunlit
Object was in full shadow at epoch
Visualization orbit readout
Latitude
Unknown
Longitude
Unknown
Altitude
Unknown
Speed
Unknown
Apparent Right ascension
Unknown
Apparent Declination
Unknown
Sunlit
N/A
Visualization observer readout
Local Sidereal Time
13:37:03
Azimuth
Unknown
Elevation
Unknown
Doppler factor
Unknown
Orbital elements
Apogee altitude
547.767 km
Perigee altitude
545.174 km
Semi-major axis
6,924.608 km
Eccentricity
0.00019
Inclination
97.3562°
RAAN
233.888°
Arg. of periapsis
122.9639°
True anomaly
237.15888°
Mean anomaly
237.1769°
Eccentric anomaly
237.16789°
Mean motion
3.76661 °/min
Orbital period
95.58 mins
BSTAR
0.00012908
Loading maneuver chart data...
Computing Atmospheric mass density...
Loading historical data...
Loading historical data...
Loading historical data...
Loading historical data...
Loading historical data...
Loading historical data...
Loading historical data...

Documentation

Showing up to 5 results
|